Regional Weather Roundup
Issued by NWS

Home | Current Version | Previous Version | Graphics & Text | Print | Product List | Glossary On
Versions: 1 2 3 4 5 6 7 8 9 10 11 12 13 14 15 16 17 18 19 20 21 22 23 24 25 26 27 28 29 30 31 32 33 34 35 36 37 38 39 40 41 42 43 44 45 46 47 48 49 50
000
ASUS43 KBIS 201710
RWRND

NORTH DAKOTA REGIONAL WEATHER ROUNDUP
NATIONAL WEATHER SERVICE BISMARCK ND
1100 AM CST SAT DEC 20 2014

NOTE: "FAIR" INDICATES FEW OR NO CLOUDS BELOW 12,000 FEET WITH NO
SIGNIFICANT WEATHER AND/OR OBSTRUCTIONS TO VISIBILITY.


NDZ001>003-009>011-017-201800-
NORTHWEST NORTH DAKOTA

CITY           SKY/WX    TMP DP  RH WIND       PRES   REMARKS
WILLISTON      MOSUNNY   26  23  88 S6        29.84S WCI  19
MINOT          CLOUDY    21  19  92 SE6       29.87S FOG     WCI  13
MINOT AFB      FRZ DRZL  21  21 100 SE7       29.87S VSB 1/2 WCI  13
$$

NDZ018>021-031>035-040>046-201800-
SOUTHWEST NORTH DAKOTA

CITY           SKY/WX    TMP DP  RH WIND       PRES   REMARKS
BISMARCK       CLOUDY    18  16  92 E5        29.92S WCI  11
DICKINSON      MOSUNNY   39  27  62 W10       29.83S
GARRISON         N/A     22  19  89 SE3       29.87S
HETTINGER ARPT CLOUDY    36  27  69 W7        29.88S
$$

NDZ004>008-012>016-024-026-027-054-201800-
NORTHEAST NORTH DAKOTA

CITY           SKY/WX    TMP DP  RH WIND       PRES   REMARKS
GRAND FORKS    FOG       26  26 100 S10       30.01R VSB 1   WCI  16
GRND FRKS AFB  CLOUDY    26  26 100 SW10      30.00S FOG     WCI  16
DEVILS LAKE    CLOUDY    25  18  74 S5        29.92F VSB 1/4 WCI  19
$$

NDZ022-023-025-028>030-036>039-047>053-201800-
SOUTHEAST NORTH DAKOTA

CITY           SKY/WX    TMP DP  RH WIND       PRES   REMARKS
FARGO          CLOUDY    31  27  85 S17       30.02S FOG     WCI  19
JAMESTOWN      FOG       25  21  85 S13       29.95F VSB 1/4 WCI  14
$$



USA.gov is the U.S. government's official web portal to all federal, state and local government web resources and services.